TimeEST,TemperatureF,Dew PointF,Humidity,Sea Level PressureIn,VisibilityMPH,Wind Direction,Wind SpeedMPH,Gust SpeedMPH,PrecipitationIn,Events,Conditions,WindDirDegrees,DateUTC
12:53 AM,5.0,1.0,84,30.27,8.0,WSW,3.5,-,N/A,,Mostly Cloudy,240,2014-02-10 05:53:00
1:53 AM,8.1,3.0,80,30.26,5.0,WSW,4.6,-,N/A,,Haze,250,2014-02-10 06:53:00
2:53 AM,7.0,1.9,80,30.27,4.0,WSW,4.6,-,N/A,,Haze,250,2014-02-10 07:53:00
3:53 AM,5.0,1.0,84,30.28,5.0,WSW,4.6,-,N/A,,Mostly Cloudy,250,2014-02-10 08:53:00
4:53 AM,1.9,-2.0,83,30.28,4.0,Calm,Calm,-,N/A,,Clear,0,2014-02-10 09:53:00
5:53 AM,-0.9,-5.1,83,30.30,3.0,WSW,3.5,-,N/A,,Clear,240,2014-02-10 10:53:00
6:53 AM,-2.0,-7.1,79,30.32,3.0,Calm,Calm,-,N/A,,Haze,0,2014-02-10 11:53:00
7:36 AM,-4.0,-9.4,78,30.28,2.0,Calm,Calm,-,N/A,,Haze,0,2014-02-10 12:36:00
7:45 AM,-5.8,-9.4,84,30.28,1.8,SW,3.5,-,N/A,,Clear,220,2014-02-10 12:45:00
7:53 AM,-4.0,-9.0,79,30.33,2.0,SW,3.5,-,N/A,,Haze,220,2014-02-10 12:53:00
7:55 AM,-4.0,-7.6,85,30.28,0.8,SW,3.5,-,N/A,,Mist,220,2014-02-10 12:55:00
8:02 AM,-4.0,-7.6,85,30.28,0.8,SW,3.5,-,N/A,,Mist,220,2014-02-10 13:02:00
8:05 AM,-5.8,-7.6,92,30.28,1.2,SSW,3.5,-,N/A,,Partly Cloudy,210,2014-02-10 13:05:00
8:14 AM,-4.0,-7.6,85,30.28,2.0,Calm,Calm,-,N/A,,Partly Cloudy,0,2014-02-10 13:14:00
8:30 AM,-2.2,-5.8,85,30.29,1.5,SW,4.6,-,N/A,,Clear,220,2014-02-10 13:30:00
8:41 AM,-0.4,-4.0,85,30.30,2.0,SW,4.6,-,N/A,,Clear,230,2014-02-10 13:41:00
8:48 AM,-0.4,-4.0,85,30.30,2.5,WSW,3.5,-,N/A,,Clear,240,2014-02-10 13:48:00
8:53 AM,-0.9,-2.9,91,30.36,2.5,SW,3.5,-,N/A,,Clear,230,2014-02-10 13:53:00
9:42 AM,3.2,-0.4,85,30.32,3.0,SW,4.6,-,N/A,,Partly Cloudy,220,2014-02-10 14:42:00
9:53 AM,3.9,-0.0,84,30.37,2.5,WSW,3.5,-,N/A,,Scattered Clouds,240,2014-02-10 14:53:00
10:00 AM,5.0,1.4,85,30.32,3.0,Calm,Calm,-,N/A,,Mostly Cloudy,0,2014-02-10 15:00:00
10:53 AM,10.9,3.9,73,30.37,5.0,Calm,Calm,-,N/A,,Haze,0,2014-02-10 15:53:00
11:53 AM,16.0,5.0,62,30.37,9.0,WNW,5.8,-,N/A,,Clear,300,2014-02-10 16:53:00
12:53 PM,16.0,5.0,62,30.36,10.0,SW,6.9,-,N/A,,Clear,230,2014-02-10 17:53:00
1:53 PM,19.0,5.0,54,30.34,10.0,Variable,5.8,-,N/A,,Clear,0,2014-02-10 18:53:00
2:53 PM,19.0,5.0,54,30.33,10.0,Variable,5.8,-,N/A,,Clear,0,2014-02-10 19:53:00
3:53 PM,19.0,5.0,54,30.35,10.0,Variable,4.6,-,N/A,,Clear,0,2014-02-10 20:53:00
4:53 PM,17.1,5.0,59,30.36,10.0,WSW,3.5,-,N/A,,Clear,240,2014-02-10 21:53:00
5:53 PM,14.0,3.0,62,30.38,10.0,WSW,3.5,-,N/A,,Clear,240,2014-02-10 22:53:00
6:44 PM,10.4,1.4,67,30.35,10.0,Calm,Calm,-,N/A,,Mostly Cloudy,0,2014-02-10 23:44:00
6:53 PM,10.9,1.9,67,30.40,10.0,Calm,Calm,-,N/A,,Mostly Cloudy,0,2014-02-10 23:53:00
7:01 PM,6.8,-0.4,72,30.35,10.0,Calm,Calm,-,N/A,,Scattered Clouds,0,2014-02-11 00:01:00
7:53 PM,6.1,-0.0,76,30.42,10.0,WSW,3.5,-,N/A,,Clear,240,2014-02-11 00:53:00
8:53 PM,3.9,-0.9,80,30.43,10.0,Variable,3.5,-,N/A,,Clear,0,2014-02-11 01:53:00
9:53 PM,1.0,-2.9,83,30.45,7.0,SW,4.6,-,N/A,,Clear,230,2014-02-11 02:53:00
10:53 PM,-0.9,-6.0,79,30.44,9.0,Calm,Calm,-,N/A,,Clear,0,2014-02-11 03:53:00
11:53 PM,-5.1,-9.9,80,30.45,8.0,Calm,Calm,-,N/A,,Clear,0,2014-02-11 04:53:00